Change the Weather History Date:

Tuesday, May 7, 2013

  Actual Average Record
Temperature  
Mean Temperature 60 °F -  
Max Temperature 70 °F 61 °F 77 °F (1953)
Min Temperature 51 °F 44 °F 34 °F (1950)
Degree Days  
Heating Degree Days 5    
Growing Degree Days 10 (Base 50)    
Moisture  
Dew Point 49 °F    
Average Humidity 76    
Maximum Humidity 89    
Minimum Humidity 53    
Precipitation  
Precipitation 0.00 in - - ()
Sea Level Pressure  
Sea Level Pressure 29.95 in    
Wind  
Wind Speed 4 mph (SW)    
Max Wind Speed 13 mph    
Max Gust Speed -    
Visibility 9 miles    
Events      
Averages and records for this station are not official NWS values.
T = Trace of Precipitation, MM = Missing Value Source: NWS Daily Summary

Daily Weather History Graph

Daily Weather History Graph

Search for Another Location

Airport or City:

Trip Planner

Search our weather history database for the weather conditions in past years. The results will help you decide how hot, cold, wet, or windy it might be!

Date:

Astronomy

May. 07, 2013 Rise Set
Actual Time 5:41 AM PDT 8:30 PM PDT
Civil Twilight 5:05 AM PDT 9:06 PM PDT
Nautical Twilight 4:20 AM PDT 9:52 PM PDT
Astronomical Twilight 3:25 AM PDT 10:47 PM PDT
Moon 4:28 AM PDT (5/7) 6:28 PM PDT (5/7)
Length of Visible Light 16h 01m
Length of Day
14h 49m
Waning Crescent, 5% of the Moon is Illuminated
May 7
Waning Crescent
May 9
New
May 17
First Quarter
May 24
Full
May 31
Last Quarter

Hourly Weather History & Observations

Time (PDT) Temp. Dew Point Humidity Pressure Visibility Wind Dir Wind Speed Gust Speed Precip Events Conditions
12:53 AM 55.4 °F 48.2 °F 77% 29.85 in 10.0 mi Calm Calm - N/A   Clear
1:53 AM 54.0 °F 48.0 °F 80% 29.86 in 10.0 mi Calm Calm - N/A   Clear
2:53 AM 53.1 °F 46.9 °F 80% 29.87 in 10.0 mi Calm Calm - N/A   Clear
3:53 AM 52.0 °F 46.0 °F 80% 29.89 in 10.0 mi Calm Calm - N/A   Clear
4:53 AM 51.1 °F 48.0 °F 89% 29.91 in 10.0 mi SW 4.6 mph - N/A   Clear
5:53 AM 51.1 °F 48.0 °F 89% 29.93 in 8.0 mi SSW 9.2 mph - N/A   Partly Cloudy
6:07 AM 51.8 °F 48.2 °F 88% 29.93 in 5.0 mi South 9.2 mph - N/A   Mostly Cloudy
6:27 AM 51.8 °F 48.2 °F 88% 29.94 in 4.0 mi South 12.7 mph - N/A   Overcast
6:53 AM 51.1 °F 48.0 °F 89% 29.94 in 6.0 mi SSW 12.7 mph - N/A   Overcast
7:53 AM 51.1 °F 48.0 °F 89% 29.96 in 8.0 mi South 8.1 mph - N/A   Overcast
8:53 AM 53.1 °F 48.0 °F 83% 29.98 in 10.0 mi South 10.4 mph - N/A   Overcast
9:53 AM 55.0 °F 48.0 °F 77% 29.98 in 9.0 mi SSW 9.2 mph - N/A   Overcast
10:53 AM 55.9 °F 48.0 °F 75% 29.98 in 10.0 mi South 8.1 mph - N/A   Overcast
11:53 AM 60.1 °F 48.9 °F 67% 29.98 in 10.0 mi Variable 3.5 mph - N/A   Scattered Clouds
12:53 PM 62.1 °F 51.1 °F 67% 29.97 in 10.0 mi SW 9.2 mph - N/A   Clear
1:53 PM 64.9 °F 50.0 °F 58% 29.96 in 10.0 mi WSW 9.2 mph - N/A   Clear
2:53 PM 66.0 °F 50.0 °F 56% 29.96 in 10.0 mi WSW 9.2 mph - N/A   Clear
3:53 PM 68.0 °F 51.1 °F 55% 29.96 in 10.0 mi WSW 6.9 mph - N/A   Clear
4:53 PM 69.1 °F 51.1 °F 53% 29.95 in 10.0 mi West 5.8 mph - N/A   Clear
5:53 PM 64.0 °F 52.0 °F 65% 29.95 in 10.0 mi Calm Calm - N/A   Clear
6:53 PM 61.0 °F 50.0 °F 67% 29.95 in 10.0 mi North 6.9 mph - N/A   Clear
7:53 PM 57.9 °F 48.9 °F 72% 29.95 in 10.0 mi North 5.8 mph - N/A   Clear
8:53 PM 55.9 °F 48.9 °F 77% 29.97 in 10.0 mi North 3.5 mph - N/A   Clear
9:53 PM 55.0 °F 50.0 °F 83% 29.98 in 10.0 mi NNE 4.6 mph - N/A   Clear
10:53 PM 54.0 °F 48.9 °F 83% 30.00 in 10.0 mi Calm Calm - N/A   Clear
11:53 PM 54.0 °F 48.9 °F 83% 30.01 in 10.0 mi Calm Calm - N/A   Clear